Bedford, MA

1:18 AM EDT on August 18, 2017 (GMT -0400)
Hanscom

Weather History for KBED - March, 2014

Change the Weather History Date:

Thursday, March 27, 2014

  Actual Average Record
Temperature  
Mean Temperature 30 °F -  
Max Temperature 44 °F 50 °F 80 °F (1998)
Min Temperature 18 °F 28 °F 14 °F (1975)
Degree Days  
Heating Degree Days 34    
Moisture  
Dew Point 1 °F    
Average Humidity 30    
Maximum Humidity 44    
Minimum Humidity 16    
Precipitation  
Precipitation 0.00 in - - ()
Sea Level Pressure  
Sea Level Pressure 30.28 in    
Wind  
Wind Speed 14 mph (West)    
Max Wind Speed 18 mph    
Max Gust Speed 26 mph    
Visibility 10 miles    
Events      
Averages and records for this station are not official NWS values.
T = Trace of Precipitation, MM = Missing Value Source: NWS Daily Summary

Daily Weather History Graph

Daily Weather History Graph

Search for Another Location

Airport or City:

Trip Planner

Search our weather history database for the weather conditions in past years. The results will help you decide how hot, cold, wet, or windy it might be!

Date:

Astronomy

Mar. 27, 2014 Rise Set
Actual Time 6:36 AM EDT 7:05 PM EDT
Civil Twilight 6:08 AM EDT 7:33 PM EDT
Nautical Twilight 5:34 AM EDT 8:07 PM EDT
Astronomical Twilight 5:00 AM EDT 8:41 PM EDT
Moon 4:29 AM EDT (3/27) 3:45 PM EDT (3/27)
Length of Visible Light 13h 25m
Length of Day
12h 29m
Waning Crescent, 13% of the Moon is Illuminated
Mar 27
Waning Crescent
Mar 30
New
Apr 7
First Quarter
Apr 15
Full
Apr 22
Last Quarter

Hourly Weather History & Observations

Time (EDT) Temp. Windchill Dew Point Humidity Pressure Visibility Wind Dir Wind Speed Gust Speed Precip Events Conditions
12:56 AM 19.9 °F 5.2 °F -2.0 °F 38% 30.09 in 10.0 mi WNW 17.3 mph - N/A   Clear
1:56 AM 19.9 °F 5.7 °F -2.0 °F 38% 30.12 in 10.0 mi WNW 16.1 mph 26.5 mph N/A   Clear
2:56 AM 19.0 °F 5.6 °F -2.0 °F 40% 30.15 in 10.0 mi WNW 13.8 mph 24.2 mph N/A   Clear
3:56 AM 19.0 °F 5.6 °F -2.0 °F 40% 30.19 in 10.0 mi WNW 13.8 mph - N/A   Clear
4:56 AM 18.0 °F 6.9 °F -2.0 °F 41% 30.23 in 10.0 mi WNW 9.2 mph - N/A   Clear
5:56 AM 19.0 °F 6.8 °F -0.9 °F 42% 30.28 in 10.0 mi WNW 11.5 mph 21.9 mph N/A   Clear
6:56 AM 19.0 °F 6.1 °F -2.0 °F 40% 30.33 in 10.0 mi West 12.7 mph - N/A   Clear
7:56 AM 21.0 °F 6.6 °F -0.9 °F 38% 30.34 in 10.0 mi WNW 17.3 mph 21.9 mph N/A   Clear
8:56 AM 24.1 °F 10.1 °F -0.9 °F 34% 30.35 in 10.0 mi WNW 18.4 mph 23.0 mph N/A   Clear
9:56 AM 27.0 °F 14.3 °F -2.0 °F 29% 30.35 in 10.0 mi WNW 17.3 mph - N/A   Clear
10:56 AM 30.9 °F 20.2 °F -2.0 °F 24% 30.36 in 10.0 mi WNW 15.0 mph - N/A   Clear
11:56 AM 33.1 °F 23.0 °F -2.0 °F 22% 30.34 in 10.0 mi WNW 15.0 mph 26.5 mph N/A   Clear
12:56 PM 37.0 °F 29.8 °F -0.9 °F 20% 30.31 in 10.0 mi WSW 10.4 mph - N/A   Clear
1:56 PM 39.9 °F 32.9 °F -0.9 °F 18% 30.30 in 10.0 mi WNW 11.5 mph 19.6 mph N/A   Clear
2:56 PM 42.1 °F 34.2 °F -0.9 °F 17% 30.30 in 10.0 mi WSW 16.1 mph 20.7 mph N/A   Clear
3:56 PM 43.0 °F 36.8 °F -0.9 °F 16% 30.28 in 10.0 mi West 11.5 mph 17.3 mph N/A   Clear
4:56 PM 43.0 °F 36.8 °F -0.0 °F 17% 30.28 in 10.0 mi SW 11.5 mph - N/A   Clear
5:56 PM 42.1 °F 37.1 °F -0.0 °F 17% 30.28 in 10.0 mi WSW 8.1 mph - N/A   Clear
6:56 PM 39.0 °F 35.7 °F 1.9 °F 21% 30.29 in 10.0 mi WSW 4.6 mph - N/A   Clear
7:56 PM 37.9 °F - 3.9 °F 24% 30.29 in 10.0 mi Calm Calm - N/A   Mostly Cloudy
8:56 PM 37.0 °F 29.8 °F 10.9 °F 34% 30.30 in 10.0 mi SSW 10.4 mph - N/A   Clear
9:56 PM 36.0 °F 27.5 °F 9.0 °F 33% 30.30 in 10.0 mi SSW 12.7 mph - N/A   Overcast
10:56 PM 35.1 °F 26.4 °F 12.0 °F 39% 30.29 in 10.0 mi SSW 12.7 mph - N/A   Overcast
11:56 PM 34.0 °F 28.8 °F 14.0 °F 44% 30.30 in 10.0 mi SSW 5.8 mph - N/A   Overcast